Regional Weather Roundup
Issued by NWS

Home | Current Version | Previous Version | Text Only | Print | Product List | Glossary Off
Versions: 1 2 3 4 5 6 7 8 9 10 11 12 13 14 15 16 17 18 19 20 21 22 23 24 25 26 27 28 29 30 31 32 33 34 35 36 37 38 39 40 41 42 43 44 45 46 47 48 49 50

000
ASUS43 KLMK 181602
RWRKY
KENTUCKY REGIONAL WEATHER ROUNDUP
NATIONAL WEATHER SERVICE LOUISVILLE KY
1200 PM EDT FRI APR 18 2014

NOTE "FAIR" INDICATES FEW OR NO CLOUDS BELOW 12,000 FEET
WITH NO SIGNIFICANT WEATHER AND/OR OBSTRUCTIONS TO VISIBILITY.

KYZ001>023-026-027-061>063-070>075-181700-
WESTERN AND SOUTH CENTRAL KENTUCKY

CITY           SKY/WX    TMP DP  RH WIND       PRES   REMARKS
PADUCAH        MOSUNNY   69  44  40 NE5       30.28S
HENDERSON      SUNNY     64  39  39 CALM      30.29S
OWENSBORO      MOSUNNY   66  45  46 S7        30.30F
HOPKINSVILLE   PTSUNNY   68  46  45 VRB2      30.29S
BOWLING GREEN  PTSUNNY   64  43  46 S7        30.31F
GLASGOW        NOT AVBL
$$

KYZ024-025-028>034-038-045-046-053-181700-
NORTH CENTRAL KENTUCKY

CITY           SKY/WX    TMP DP  RH WIND       PRES   REMARKS
LOUISVILLE/SDF PTSUNNY   68  43  40 VRB3      30.30F
LOUISVILLE/LOU PTSUNNY   67  43  41 CALM      30.31S
FORT KNOX      PTSUNNY   66  44  45 W3        30.29F
$$

KYZ035>037-039>044-047>052-055>060-089>105-181700-
NORTHEAST KENTUCKY

CITY           SKY/WX    TMP DP  RH WIND       PRES   REMARKS
LEXINGTON      PTSUNNY   64  44  48 W7        30.32S
COVINGTON      PTSUNNY   64  37  36 S3        30.30S
FRANKFORT      PTSUNNY   65  38  36 SW10      30.30F
$$

KYZ054-064>069-076>088-106>120-181700-
SOUTHEAST KENTUCKY

CITY           SKY/WX    TMP DP  RH WIND       PRES   REMARKS
JACKSON          N/A     65  36  34 VRB5      30.33F
LONDON         CLOUDY    60  35  39 S5        30.34S
SOMERSET       NOT AVBL
MIDDLESBORO    NOT AVBL
MONTICELLO     CLOUDY    69  48  46 CALM      30.35S
$$




USA.gov is the U.S. government's official web portal to all federal, state and local government web resources and services.